Kansas Department of Transportation
RWIS(Road and Runway Information System) Map and Weather Data





Station
Surface
Air
Wind
Site IDSensor TypeLocationTemperature (°F)Temperature (°F)Humidity (%)Speed (mi/h)Gusts (mi/h)DirectionTime
123015AtmosphericLeavenworth 669812ESEAug 26 2016 4:55AM
123015DeckLeavenworth72     Aug 26 2016 4:55AM
123015DepartureLeavenworth72     Aug 26 2016 4:55AM
123020AtmosphericMayetta 649378NEAug 26 2016 4:55AM
123020RoadwayMayettaUnavailable     Aug 26 2016 4:55AM
123020DeckMayettaUnavailable     Aug 26 2016 4:55AM
505000AtmosphericKTA 1 689024SWAug 26 2016 4:40AM
505000ApproachKTA 172     Aug 26 2016 4:40AM
505000DeckKTA 173     Aug 26 2016 4:40AM
505001AtmosphericKTA 2 709711WAug 26 2016 4:40AM
505001ApproachKTA 272     Aug 26 2016 4:40AM
505001DeckKTA 273     Aug 26 2016 4:40AM
505002AtmosphericKTA 3 669900WAug 26 2016 4:40AM
505002ApproachKTA 372     Aug 26 2016 4:40AM
505002DeckKTA 373     Aug 26 2016 4:40AM
505003AtmosphericKTA 4 688811ENEAug 26 2016 4:40AM
505003ApproachKTA 472     Aug 26 2016 4:40AM
505003DeckKTA 473     Aug 26 2016 4:40AM
505004AtmosphericKTA 5 689912WNWAug 26 2016 4:40AM
505004RoadwayKTA 572     Aug 26 2016 4:40AM
505004RoadwayKTA 572     Aug 26 2016 4:40AM
505006AtmosphericKTA 7 689311NEAug 26 2016 4:42AM
505006ApproachKTA 772     Aug 26 2016 4:42AM
505006DeckKTA 770     Aug 26 2016 4:42AM
505007AtmosphericKTA 8 709904SEAug 26 2016 4:42AM
505007ApproachKTA 872     Aug 26 2016 4:42AM
505007DeckKTA 872     Aug 26 2016 4:42AM
505009AtmosphericKTA 10 737701SSEAug 26 2016 4:44AM
505009ApproachKTA 1073     Aug 26 2016 4:44AM
505009DeckKTA 1073     Aug 26 2016 4:44AM
505010AtmosphericWebb 7069610SWAug 26 2016 4:55AM
505010DeckWebb72     Aug 26 2016 4:55AM
505010DepartureWebbUnavailable     Aug 26 2016 4:55AM
505014AtmosphericI-135 709549NWAug 26 2016 4:50AM
505014ApproachI-13572     Aug 26 2016 4:50AM
505014DeckI-135Unavailable     Aug 26 2016 4:50AM
540000AtmosphericBlue Rapids 649222NNEAug 26 2016 4:55AM
540000DeckBlue Rapids68     Aug 26 2016 4:55AM
540000DepartureBlue RapidsUnavailable     Aug 26 2016 4:55AM
540001AtmosphericSabetha 619901NEAug 26 2016 4:55AM
540001ApproachSabethaUnavailable     Aug 26 2016 4:55AM
540001DeckSabetha70     Aug 26 2016 4:55AM
540002AtmosphericWestgate 688814NWAug 26 2016 4:55AM
540002DeckWestgate68     Aug 26 2016 4:55AM
540002DepartureWestgate72     Aug 26 2016 4:55AM
540003AtmosphericEmporia 689913WAug 26 2016 4:55AM
540003ApproachEmporia79     Aug 26 2016 4:55AM
540003DeckEmporia72     Aug 26 2016 4:55AM
540005AtmosphericLawrence 689712SSEAug 26 2016 4:55AM
540005DeckLawrenceUnavailable     Aug 26 2016 4:55AM
540006AtmosphericTroy 649912NNEAug 26 2016 4:55AM
540006DeckTroy68     Aug 26 2016 4:55AM
540006DepartureTroyUnavailable     Aug 26 2016 4:55AM
540007AtmosphericManhattan 649301NAug 26 2016 4:55AM
540007DepartureManhattan70     Aug 26 2016 4:55AM
540007DeckManhattan75     Aug 26 2016 4:55AM
541000AtmosphericElkhart 618712SSWAug 26 2016 4:55AM
541000ApproachElkhartUnavailable     Aug 26 2016 4:55AM
541000DeckElkhart68     Aug 26 2016 4:55AM
541001AtmosphericSyracuse 619026EAug 26 2016 4:55AM
541001DeckSyracuse66     Aug 26 2016 4:55AM
541002AtmosphericLiberal 649811ESEAug 26 2016 4:55AM
541002ApproachLiberal70     Aug 26 2016 4:55AM
541002DeckLiberal68     Aug 26 2016 4:55AM
541003AtmosphericFord 669513ESEAug 26 2016 4:55AM
541003DeckFord68     Aug 26 2016 4:55AM
541003DepartureFord70     Aug 26 2016 4:55AM
541004AtmosphericScott 591200SEAug 26 2016 4:55AM
541004DepartureScott70     Aug 26 2016 4:55AM
541005AtmosphericNess 648224ENEAug 26 2016 4:55AM
541005DeckNess68     Aug 26 2016 4:55AM
541005DepartureNess73     Aug 26 2016 4:55AM
541007AtmosphericGarden City 619536EAug 26 2016 4:55AM
541007ApproachGarden City      Aug 26 2016 4:55AM
541007DeckGarden City66     Aug 26 2016 4:55AM
543000AtmosphericJunction City 649726NEAug 26 2016 4:55AM
543000ApproachJunction City68     Aug 26 2016 4:55AM
543000DeckJunction CityUnavailable     Aug 26 2016 4:55AM
543001AtmosphericEllsworth 647968SAug 26 2016 4:55AM
543001RoadwayEllsworth70     Aug 26 2016 4:55AM
543002AtmosphericMcPherson 649946SWAug 26 2016 4:55AM
543002ApproachMcPherson70     Aug 26 2016 4:55AM
543002DeckMcPherson66     Aug 26 2016 4:55AM
543003AtmosphericSalina 66691 NEAug 26 2016 4:20AM
543003DepartureSalina75     Aug 26 2016 4:55AM
543003RoadwaySalinaUnavailable     Aug 26 2016 4:55AM
543003DeckSalina68     Aug 26 2016 4:55AM
543004AtmosphericConcordia 639046NNEAug 26 2016 4:55AM
543004ApproachConcordiaUnavailable     Aug 26 2016 4:55AM
543004DeckConcordia68     Aug 26 2016 4:55AM
543005AtmosphericPeabody 639536SSWAug 26 2016 4:55AM
543005ApproachPeabody73     Aug 26 2016 4:55AM
543005DeckPeabodyUnavailable     Aug 26 2016 4:55AM
560000AtmosphericEdson 687900ESEAug 26 2016 4:55AM
560000RoadwayEdson66     Aug 26 2016 4:55AM
560000RoadwayEdsonUnavailable     Aug 26 2016 4:55AM
560001AtmosphericOakley 599223ESEAug 26 2016 4:55AM
560001ApproachOakley70     Aug 26 2016 4:55AM
560001DeckOakley66     Aug 26 2016 4:55AM
560002AtmosphericAtwood 529012SSWAug 26 2016 4:55AM
560002ApproachAtwood64     Aug 26 2016 4:55AM
560002DeckAtwood68     Aug 26 2016 4:55AM
560003AtmosphericJennings 55901WSWAug 26 2016 4:55AM
560003ApproachJennings68     Aug 26 2016 4:55AM
560003DeckJennings66     Aug 26 2016 4:55AM
560004AtmosphericWakeeney 638511NNEAug 26 2016 4:55AM
560004ApproachWakeeney66     Aug 26 2016 4:55AM
560004DeckWakeeney64     Aug 26 2016 4:55AM
560005AtmosphericWalker 617523NEAug 26 2016 4:55AM
560005ApproachWalker70     Aug 26 2016 4:55AM
560005DeckWalker73     Aug 26 2016 4:55AM
560006AtmosphericBow Creek(Stockton) 599800NAug 26 2016 4:55AM
560006ApproachBow Creek(Stockton)68     Aug 26 2016 4:55AM
560006DeckBow Creek(Stockton)64     Aug 26 2016 4:55AM
560007AtmosphericLebanon 599436ENEAug 26 2016 4:55AM
560007ApproachLebanon68     Aug 26 2016 4:55AM
560007DeckLebanonUnavailable     Aug 26 2016 4:55AM
560008AtmosphericWallace 596601SWAug 26 2016 4:55AM
560008ApproachWallace73     Aug 26 2016 4:55AM
560008DeckWallace68     Aug 26 2016 4:55AM
572000AtmosphericGreat Bend 649902NNWAug 26 2016 4:55AM
572000ApproachGreat Bend70     Aug 26 2016 4:55AM
572000DeckGreat Bend68     Aug 26 2016 4:55AM
572001AtmosphericPratt 649401EAug 26 2016 4:55AM
572001ApproachPratt70     Aug 26 2016 4:55AM
572001DeckPratt68     Aug 26 2016 4:55AM
572002AtmosphericAnthony 709668NWAug 26 2016 4:55AM
572002ApproachAnthony75     Aug 26 2016 4:55AM
572002DeckAnthony73     Aug 26 2016 4:55AM
573000AtmosphericEureka 669925WAug 26 2016 4:55AM
573000DeckEureka73     Aug 26 2016 4:55AM
573000DepartureEureka73     Aug 26 2016 4:55AM
573001AtmosphericGarnett 689911NAug 26 2016 4:55AM
573001ApproachGarnett73     Aug 26 2016 4:55AM
573001DeckGarnett73     Aug 26 2016 4:55AM
573002AtmosphericCaney 709500SWAug 26 2016 4:55AM
573002RoadwayCaney77     Aug 26 2016 4:55AM
573004AtmosphericChanute 689912WSWAug 26 2016 4:55AM
573004ApproachChanute79     Aug 26 2016 4:55AM
573004DeckChanute73     Aug 26 2016 4:55AM